{"data":{"norad_id":33459,"intl_designator":"2008-065A","name":"EUTELSAT HOTBIRD 13C","alt_names":[],"object_type":"PAYLOAD","status":"ACTIVE","operator":null,"country":"EUTE","launch_date":"2008-12-20","launch_site_code":"FRGUI","launch_vehicle":null,"mission":null,"orbit_class":"UNKNOWN","rcs_meters":6.3245,"size_class":null,"mass_kg":null,"dimensions":null,"purposes":["comms"],"wikipedia_slug":null,"has_3d_model":false,"image_url":null,"decayed_at":null,"tle_current":{"epoch":"2026-09-19T21:51:53.163072Z","epoch_age_seconds":65219,"freshness":"FRESH","line1":"1 33459U 08065A   26262.91103198 -.00000286  00000+0  00000+0 0  9998","line2":"2 33459   3.1870  77.9874 0003627 103.5565  94.9579  1.00272466 48294","mean_motion":1.00272466,"eccentricity":0.0003627,"inclination_deg":3.187,"raan_deg":77.9874,"arg_perigee_deg":103.5565,"mean_anomaly_deg":94.9579,"bstar":0,"rev_number":4829,"period_min":1436.0871507837,"perigee_km":35771.11097421,"apogee_km":35801.69713229,"semimajor_km":42164.54105325,"source":"CELESTRAK","updated_at":"2026-09-20T09:00:35.134768Z"}}}